Weather History for RJEC - March, 2013

Change the Weather History Date:

Monday, March 11, 2013

  Actual Average Record
Temperature  
Mean Temperature 16 °F -  
Max Temperature 23 °F 38 °F 44 °F (2006)
Min Temperature 10 °F 24 °F -11 °F (2001)
Degree Days  
Heating Degree Days 48    
Moisture  
Dew Point 15 °F    
Average Humidity 87    
Maximum Humidity 100    
Minimum Humidity 63    
Precipitation  
Precipitation 0.00 in - - ()
Sea Level Pressure  
Sea Level Pressure 29.85 in    
Wind  
Wind Speed 6 mph ()    
Max Wind Speed 16 mph    
Max Gust Speed -    
Visibility 1.8 miles    
Events Snow    
Averages and records for this station are not official NWS values.
T = Trace of Precipitation, MM = Missing Value Source: Averaged Metar Reports

Daily Weather History Graph

Daily Weather History Graph

Search for Another Location

Airport or City:

Trip Planner

Search our weather history database for the weather conditions in past years. The results will help you decide how hot, cold, wet, or windy it might be!

Date:

Astronomy

Mar. 11, 2013 Rise Set
Actual Time 5:50 AM JST 5:31 PM JST
Civil Twilight 5:21 AM JST 5:59 PM JST
Nautical Twilight 4:48 AM JST 6:32 PM JST
Astronomical Twilight 4:14 AM JST 7:06 PM JST
Moon 5:02 AM JST (3/11) 5:02 PM JST (3/11)
Length of Visible Light 12h 38m
Length of Day
11h 40m
Waning Crescent, 1% of the Moon is Illuminated
Mar 11
Waning Crescent
Mar 12
New
Mar 20
First Quarter
Mar 27
Full
Apr 3
Last Quarter

Hourly Weather History & Observations

Time (JST) Temp. Windchill Dew Point Humidity Pressure Visibility Wind Dir Wind Speed Gust Speed Precip Events Conditions
6:42 AM 10.4 °F -1.5 °F 6.8 °F 85% 29.77 in - South 8.1 mph - N/A Snow Light Snow Showers
6:45 AM 10.4 °F -1.5 °F 6.8 °F 85% 29.80 in 3.1 mi South 8.1 mph - N/A Snow Light Snow Showers
7:00 AM 10.4 °F -2.4 °F 8.6 °F 92% 29.80 in 3.7 mi South 9.2 mph - N/A Snow Light Snow Showers
7:12 AM 12.2 °F -0.2 °F 8.6 °F 85% 29.80 in - South 9.2 mph - N/A Snow Light Snow Showers
7:15 AM 12.2 °F 0.7 °F 8.6 °F 85% 29.80 in 1.4 mi South 8.1 mph - N/A Snow Light Snow Showers
7:24 AM 12.2 °F -0.2 °F 8.6 °F 85% 29.80 in 1.5 mi South 9.2 mph - N/A Snow Light Snow Showers
7:33 AM 12.2 °F 0.7 °F 8.6 °F 85% 29.80 in 1.4 mi South 8.1 mph - N/A Snow Light Snow Showers
7:45 AM 12.2 °F -0.2 °F 8.6 °F 85% 29.83 in 1.5 mi South 9.2 mph - N/A Snow Light Snow Showers
8:00 AM 14.0 °F 2.0 °F 10.4 °F 86% 29.83 in 2.2 mi South 9.2 mph - N/A Snow Light Snow Showers
8:16 AM 14.0 °F 2.0 °F 10.4 °F 86% 29.83 in - South 9.2 mph - N/A Snow Light Snow Showers
8:40 AM 15.8 °F 6.1 °F 12.2 °F 86% 29.83 in 1.4 mi South 6.9 mph - N/A Snow Light Snow Showers
8:49 AM 17.6 °F 8.2 °F 14.0 °F 86% 29.83 in 1.5 mi South 6.9 mph - N/A Snow Light Snow Showers
9:00 AM 17.6 °F 8.2 °F 14.0 °F 86% 29.83 in 1.4 mi SSE 6.9 mph - N/A Snow Light Snow Showers
9:08 AM 17.6 °F 8.2 °F 14.0 °F 86% 29.83 in 0.9 mi SSE 6.9 mph - N/A Snow Light Snow Showers
9:15 AM 19.4 °F 10.4 °F 14.0 °F 80% 29.83 in 1.0 mi SSE 6.9 mph - N/A Snow Light Snow Showers
9:28 AM 19.4 °F 11.5 °F 14.0 °F 80% 29.86 in 0.9 mi South 5.8 mph - N/A Snow Light Snow Showers
9:30 AM 19.4 °F 11.5 °F 14.0 °F 80% 29.86 in 0.9 mi South 5.8 mph - N/A Snow Light Snow Showers
9:35 AM 19.4 °F 12.8 °F 15.8 °F 86% 29.83 in 0.7 mi South 4.6 mph - N/A Snow Light Snow Showers
9:39 AM 19.4 °F 12.8 °F 15.8 °F 86% 29.86 in 0.9 mi South 4.6 mph - N/A Snow Light Snow Showers
9:41 AM 19.4 °F 14.3 °F 17.6 °F 93% 29.86 in 1.0 mi South 3.5 mph - N/A Snow Light Snow Showers
9:46 AM 19.4 °F 14.3 °F 15.8 °F 86% 29.86 in 0.9 mi South 3.5 mph - N/A Snow Light Snow Showers
10:00 AM 21.2 °F - 17.6 °F 86% 29.86 in 0.6 mi Variable 2.3 mph - N/A Snow Snow Showers
10:04 AM 19.4 °F - 19.4 °F 100% 29.86 in 0.6 mi Variable 2.3 mph - N/A Snow Snow Showers
10:07 AM 19.4 °F - 19.4 °F 100% 29.86 in 0.6 mi Variable 1.2 mph - N/A Snow Snow Showers
10:09 AM 21.2 °F - 19.4 °F 93% 29.86 in 0.5 mi Variable 1.2 mph - N/A Snow Snow Showers
10:11 AM 21.2 °F - 21.2 °F 100% 29.86 in 0.6 mi Variable 1.2 mph - N/A Snow Snow Showers
10:14 AM 19.4 °F - 19.4 °F 100% 29.86 in 0.6 mi Variable 1.2 mph - N/A Snow Light Snow Showers
10:16 AM 19.4 °F - 19.4 °F 100% 29.86 in 0.9 mi Variable 2.3 mph - N/A Snow Light Snow Showers
10:24 AM 19.4 °F - 19.4 °F 100% 29.86 in 0.9 mi Variable 2.3 mph - N/A Snow Light Snow Showers
10:27 AM 19.4 °F - 19.4 °F 100% 29.86 in 0.7 mi Variable 2.3 mph - N/A Snow Light Snow Showers
10:30 AM 19.4 °F - 19.4 °F 100% 29.86 in 0.7 mi Variable 1.2 mph - N/A Snow Light Snow Showers
10:41 AM 19.4 °F - 17.6 °F 93% 29.86 in 0.6 mi Variable 2.3 mph - N/A Snow Snow Showers
10:44 AM 19.4 °F - 17.6 °F 93% 29.86 in 0.4 mi Variable 2.3 mph - N/A Snow Snow Showers
11:00 AM 19.4 °F 12.8 °F 15.8 °F 86% 29.86 in 1.0 mi West 4.6 mph - N/A Snow Light Snow Showers
11:16 AM 19.4 °F - 19.4 °F 100% 29.86 in 1.5 mi Variable 2.3 mph - N/A Snow Light Snow Showers
11:21 AM 19.4 °F - 19.4 °F 100% 29.86 in - Variable 2.3 mph - N/A Snow Light Snow Showers
11:32 AM 21.2 °F 16.4 °F 15.8 °F 80% 29.86 in - West 3.5 mph - N/A Snow Light Snow Showers
11:34 AM 21.2 °F 16.4 °F 15.8 °F 80% 29.86 in 1.4 mi WSW 3.5 mph - N/A Snow Light Snow Showers
11:37 AM 21.2 °F 16.4 °F 17.6 °F 86% 29.86 in 0.9 mi SW 3.5 mph - N/A Snow Light Snow Showers
11:50 AM 21.2 °F 10.9 °F 14.0 °F 74% 29.86 in 1.5 mi West 9.2 mph - N/A Snow Light Snow Showers
12:00 PM 21.2 °F 7.3 °F 15.8 °F 80% 29.86 in 0.9 mi WNW 16.1 mph - N/A Snow Light Snow Showers
12:05 PM 21.2 °F 7.3 °F 17.6 °F 86% 29.86 in - WNW 16.1 mph - N/A Snow Light Snow Showers
12:29 PM 21.2 °F 12.6 °F 19.4 °F 93% 29.86 in 3.1 mi WNW 6.9 mph - N/A Snow Light Snow Showers
1:00 PM 23.0 °F 10.1 °F 12.2 °F 63% 29.86 in 6.2 mi WNW 15.0 mph - N/A Snow Light Snow Showers
2:00 PM 23.0 °F 13.1 °F 12.2 °F 63% 29.86 in 6.2 mi West 9.2 mph - N/A Snow Light Snow Showers
3:00 PM 23.0 °F 11.1 °F 14.0 °F 68% 29.86 in 6.2 mi West 12.7 mph - N/A Snow Light Snow Showers
4:00 PM 21.2 °F 10.1 °F 15.8 °F 80% 29.86 in 5.0 mi SW 10.4 mph - N/A Snow Light Snow Showers
4:40 PM 21.2 °F 13.6 °F 15.8 °F 80% 29.86 in - SSW 5.8 mph - N/A Snow Light Snow Showers
5:00 PM 21.2 °F 12.6 °F 17.6 °F 86% 29.86 in 3.1 mi SSW 6.9 mph - N/A Snow Light Snow Showers
5:15 PM 21.2 °F 14.9 °F 17.6 °F 86% 29.86 in - SSW 4.6 mph - N/A Snow Light Snow Showers
5:18 PM 21.2 °F 14.9 °F 17.6 °F 86% 29.86 in - SSW 4.6 mph - N/A Snow Light Snow Showers
5:21 PM 21.2 °F 12.6 °F 17.6 °F 86% 29.86 in 0.9 mi SSW 6.9 mph - N/A Snow Light Snow Showers
5:36 PM 21.2 °F 12.6 °F 17.6 °F 86% 29.86 in 1.5 mi SSW 6.9 mph - N/A Snow Light Snow Showers
6:00 PM 21.2 °F 9.5 °F 15.8 °F 80% 29.86 in - South 11.5 mph - N/A Snow Light Snow Showers
6:20 PM 21.2 °F 10.9 °F 17.6 °F 86% 29.86 in 3.1 mi SSW 9.2 mph - N/A Snow Light Snow Showers
7:00 PM 21.2 °F 11.7 °F 15.8 °F 80% 29.89 in 3.1 mi SSW 8.1 mph - N/A Snow Light Snow Showers
8:00 PM 21.2 °F 10.9 °F 15.8 °F 80% 29.89 in 4.3 mi SSW 9.2 mph - N/A Snow Light Snow Showers